Regional Weather Roundup
Issued by NWS

Home | Current Version | Previous Version | Text Only | Print | Product List | Glossary On
Versions: 1 2 3 4 5 6 7 8 9 10 11 12 13 14 15 16 17 18 19 20 21 22 23 24 25 26 27 28 29 30 31 32 33 34 35 36 37 38 39 40 41 42 43 44 45 46 47 48 49 50
000
ASUS43 KDMX 292307
RWRIA

WEATHER ROUNDUP FOR IOWA
NATIONAL WEATHER SERVICE DES MOINES IA
600 PM CDT TUE JUL 29 2014

NOTE: "FAIR" INDICATES FEW OR NO CLOUDS BELOW 12,000 FEET WITH NO
SIGNIFICANT WEATHER AND/OR OBSTRUCTIONS TO VISIBILITY.

* - THESE STATIONS ARE NOT NWS STATIONS...THUS NOT UNDER NWS
QUALITY CONTROL.  THEY ALSO DO NOT REPORT WEATHER SUCH
AS PRECIPITATION OR FOG.

IAZ001>003-012>014-020>022-031>034-043>046-300000-
   NORTHWEST IOWA

CITY           SKY/WX    TMP DP  RH WIND       PRES   REMARKS
CARROLL *      SUNNY     72  55  56 NW6       30.12F
CHEROKEE *     SUNNY     75  54  46 NW6       30.13F
DENISON *      SUNNY     73  55  53 N10       30.12F
LE MARS *      SUNNY     75  55  50 NW7       30.14F
ORANGE CITY *  MOSUNNY   73  54  49 W5        30.14F
SHELDON *      MOSUNNY   73  54  49 NW7G13    30.13F
SIOUX CITY     CLOUDY    75  53  46 N7        30.13F
SPENCER        SUNNY     75  54  47 NW8       30.12F
STORM LAKE *   SUNNY     73  57  56 NW6       30.14F
$$

IAZ055>058-069>071-079>083-090>094-300000-
   SOUTHWEST IOWA

CITY           SKY/WX    TMP DP  RH WIND       PRES   REMARKS
ATLANTIC *     PTSUNNY   73  54  49 N7        30.13S
AUDUBON *      SUNNY     77  55  47 NW6       30.15S
CLARINDA *     SUNNY     77  57  50 NW7       30.14S
COUNCIL BLFS * MOSUNNY   75  57  53 NE7       30.13S
CRESTON *      MOSUNNY   75  54  46 N9        30.13F
HARLAN  *      SUNNY     73  55  53 VRB7      30.17F
LAMONI         PTSUNNY   75  56  51 N9        30.12F
RED OAK *      MOSUNNY   75  57  53 N6        30.13F
SHENANDOAH *   PTSUNNY   77  57  50 N7        30.13S
$$

IAZ047>049-059>061-072>074-084-300000-
   CENTRAL IOWA

CITY           SKY/WX    TMP DP  RH WIND       PRES   REMARKS
AMES           MOSUNNY   77  55  46 NW12      30.10F
ANKENY *       SUNNY     77  54  44 NW9       30.10F
CHARITON *     SUNNY     77  55  47 NW7       30.11S
DES MOINES     MOSUNNY   80  54  40 N8        30.09F HX  80
GRINNELL*      MOSUNNY   73  59  60 NW5       30.10F
KNOXVILLE *    SUNNY     77  54  44 W8        30.09S
MARSHALLTOWN   MOSUNNY   74  58  57 N8        30.09F
PELLA *        SUNNY     79  57  47 NW7       30.10F HX  80
PERRY *          N/A     75  55  50 NW5       30.11F
$$

IAZ004>006-015-016-023>025-035-036-300000-
   NORTH CENTRAL IOWA

CITY           SKY/WX    TMP DP  RH WIND       PRES   REMARKS
ALGONA *       SUNNY     75  55  50 NW6G12    30.11F
CLARION *      MOSUNNY   75  55  50 NW9       30.10F
ESTHERVILLE    MOSUNNY   74  54  49 NW9       30.11F
FORT DODGE *   MOSUNNY   75  55  50 NW8       30.12F
MASON CITY     SUNNY     76  53  44 W10       30.10F
FOREST CITY *  SUNNY     73  54  49 NE8       30.10F
IOWA FALLS *     N/A     75  52  43 NW8       30.11S
$$

IAZ007>011-017>019-026>030-037>042-050>054-066-300000-
   NORTHEAST IOWA

CITY           SKY/WX    TMP DP  RH WIND       PRES   REMARKS
CEDAR RAPIDS   MOSUNNY   77  57  50 NW9       30.06F
CHARLES CITY * SUNNY     75  55  50 NW12G18   30.08F
CLINTON *      SUNNY     75  57  53 W9        30.06F
DECORAH *      SUNNY     75  57  53 NW9       30.05S
DUBUQUE        MOSUNNY   75  57  53 W10       30.05S
MONTICELLO *   SUNNY     77  59  53 NW15      30.05S
OELWEIN *      MOSUNNY   75  57  53 W12       30.07F
WATERLOO       SUNNY     77  54  44 NW9       30.06F
$$

IAZ064-065-067-068-078-300000-
   EAST CENTRAL IOWA

CITY           SKY/WX    TMP DP  RH WIND       PRES   REMARKS
DAVENPORT      MOSUNNY   76  59  55 W9        30.05F
IOWA CITY      SUNNY     78  57  48 W9        30.07F
MT. PLEASANT * MOSUNNY   77  54  44 W6        30.08F
MUSCATINE *    SUNNY     79  55  44 W8        30.05F
QUAD CITIES    SUNNY     78  57  48 W9        30.04F
$$

IAZ062-063-075>077-085>089-095>099-300000-
   SOUTHEAST IOWA

CITY           SKY/WX    TMP DP  RH WIND       PRES   REMARKS
BURLINGTON     SUNNY     77  58  51 NW7       30.07F
FAIRFIELD *    MOSUNNY   75  57  53 NW9       30.09F
FORT MADISON * MOSUNNY   79  59  50 W8        30.09F HX  80
KEOKUK *       SUNNY     75  59  57 NW7       30.08F
OSKALOOSA *      N/A     77  59  53 NW8       30.09F
CENTERVILLE *  SUNNY     77  55  47 W6        30.12F
OTTUMWA        SUNNY     76  54  46 NW8       30.09S
WASHINGTON *   MOSUNNY   75  59  57 NW10      30.08S
$$

ABBREVIATIONS USED IN REMARKS
   TC - TEMPERATURES IN CELSIUS
  WCI - WIND CHILL INDEX
   HX - HEAT INDEX
  VSB - VISIBILITY
$$



USA.gov is the U.S. government's official web portal to all federal, state and local government web resources and services.